EWG461 LSGG-EDDK

Flight info

Callsign EWG461
Flight time 1h 6m
Altitude 30000
Route SOSAL N871 KORED DCT BERSU DCT DITON DCT ROMIR DCT LOKTA N851 LBU Z3 VATAK T840 GULKO GULKO1C
Aircraft A320/M-SDE3FGHIRWY/LB1

Departure

Time 2026-04-20 00:45
Airport Geneva International Airport (LSGG)

Arrival

Time 2026-04-20 01:51
Airport Cologne Bonn Airport (EDDK)
Time Latitude Longitude Altitude Speed Heading
2026-04-19 23:52 46.23155 6.10741 1393 ft 0 kts 136°
2026-04-19 23:57 46.23156 6.10741 1393 ft 0 kts 135°
2026-04-20 00:30 46.23157 6.10738 1393 ft 1 kts 134°
2026-04-20 00:30 46.23168 6.10720 1406 ft 3 kts 121°
2026-04-20 00:30 46.23176 6.10695 1402 ft 3 kts 93°
2026-04-20 00:31 46.23174 6.10672 1400 ft 2 kts 51°
2026-04-20 00:31 46.23171 6.10666 1398 ft 0 kts 45°
2026-04-20 00:38 46.23175 6.10671 1400 ft 3 kts 45°
2026-04-20 00:38 46.23193 6.10697 1404 ft 6 kts 45°
2026-04-20 00:38 46.23226 6.10747 1393 ft 8 kts 46°
2026-04-20 00:38 46.23293 6.10792 1393 ft 12 kts 14°
2026-04-20 00:39 46.23361 6.10784 1399 ft 9 kts 321°
2026-04-20 00:39 46.23404 6.10722 1392 ft 8 kts 316°
2026-04-20 00:39 46.23447 6.10703 1391 ft 7 kts 40°
2026-04-20 00:39 46.23488 6.10761 1387 ft 11 kts 45°
2026-04-20 00:40 46.23557 6.10863 1387 ft 17 kts 45°
2026-04-20 00:40 46.23636 6.10978 1388 ft 15 kts 45°
2026-04-20 00:40 46.23710 6.11089 1383 ft 16 kts 46°
2026-04-20 00:40 46.23801 6.11221 1375 ft 22 kts 45°
2026-04-20 00:41 46.23920 6.11395 1375 ft 26 kts 46°
2026-04-20 00:41 46.24057 6.11597 1369 ft 30 kts 45°
2026-04-20 00:41 46.24205 6.11813 1363 ft 26 kts 45°
2026-04-20 00:41 46.24305 6.11962 1363 ft 21 kts 45°
2026-04-20 00:42 46.24402 6.12105 1369 ft 19 kts 46°
2026-04-20 00:42 46.24512 6.12261 1372 ft 23 kts 45°
2026-04-20 00:42 46.24631 6.12442 1368 ft 27 kts 45°
2026-04-20 00:42 46.24713 6.12559 1363 ft 10 kts 45°
2026-04-20 00:43 46.24763 6.12633 1362 ft 11 kts 44°
2026-04-20 00:43 46.24834 6.12683 1363 ft 12 kts 17°
2026-04-20 00:43 46.24932 6.12726 1366 ft 16 kts 16°
2026-04-20 00:43 46.25012 6.12721 1369 ft 9 kts 322°
2026-04-20 00:44 46.25010 6.12662 1370 ft 5 kts 224°
2026-04-20 00:44 46.24985 6.12627 1372 ft 6 kts 224°
2026-04-20 00:44 46.24893 6.12492 1372 ft 45 kts 226°
2026-04-20 00:44 46.24500 6.11916 1372 ft 114 kts 225°
2026-04-20 00:45 46.23818 6.10919 1423 ft 160 kts 225°
2026-04-20 00:45 46.23034 6.09778 2087 ft 159 kts 226°
2026-04-20 00:45 46.22249 6.08633 2793 ft 162 kts 225°
2026-04-20 00:45 46.21468 6.07452 3441 ft 165 kts 234°
2026-04-20 00:46 46.21209 6.05880 4019 ft 164 kts 283°
2026-04-20 00:46 46.21774 6.04477 4613 ft 166 kts 322°
2026-04-20 00:46 46.22878 6.03759 4966 ft 189 kts 355°
2026-04-20 00:46 46.24210 6.04217 5387 ft 205 kts 24°
2026-04-20 00:47 46.25553 6.05031 5959 ft 212 kts 21°
2026-04-20 00:47 46.26907 6.05936 6571 ft 219 kts 34°
2026-04-20 00:47 46.28106 6.07438 6889 ft 240 kts 43°
2026-04-20 00:47 46.29389 6.09176 7230 ft 265 kts 42°
2026-04-20 00:48 46.30799 6.11074 7695 ft 286 kts 42°
2026-04-20 00:48 46.32277 6.13060 8499 ft 293 kts 41°
2026-04-20 00:48 46.33762 6.15056 9395 ft 297 kts 40°
2026-04-20 00:48 46.35141 6.17319 10263 ft 305 kts 57°
2026-04-20 00:49 46.36105 6.20176 10689 ft 327 kts 64°
2026-04-20 00:49 46.37046 6.23298 11090 ft 346 kts 65°
2026-04-20 00:49 46.37986 6.26548 11784 ft 353 kts 65°
2026-04-20 00:49 46.38928 6.29861 12556 ft 358 kts 65°
2026-04-20 00:50 46.39881 6.33217 13336 ft 363 kts 65°
2026-04-20 00:50 46.40857 6.36620 13598 ft 366 kts 64°
2026-04-20 00:50 46.41846 6.40032 13867 ft 367 kts 64°
2026-04-20 00:50 46.42849 6.43470 14493 ft 371 kts 64°
2026-04-20 00:51 46.43861 6.46937 15205 ft 374 kts 63°
2026-04-20 00:51 46.44865 6.50385 15899 ft 378 kts 63°
2026-04-20 00:51 46.45887 6.53909 16600 ft 381 kts 63°
2026-04-20 00:51 46.46918 6.57468 17288 ft 384 kts 63°
2026-04-20 00:52 46.47957 6.61063 17973 ft 387 kts 63°
2026-04-20 00:52 46.49003 6.64686 18610 ft 390 kts 63°
2026-04-20 00:52 46.50055 6.68337 19187 ft 394 kts 63°
2026-04-20 00:52 46.51116 6.72025 19762 ft 398 kts 62°
2026-04-20 00:53 46.52187 6.75755 20324 ft 402 kts 62°
2026-04-20 00:53 46.53252 6.79475 20885 ft 406 kts 62°
2026-04-20 00:53 46.54340 6.83277 21439 ft 410 kts 62°
2026-04-20 00:53 46.55497 6.87072 22000 ft 411 kts 57°
2026-04-20 00:54 46.57008 6.90581 22539 ft 409 kts 47°
2026-04-20 00:54 46.58802 6.93810 23080 ft 412 kts 44°
2026-04-20 00:54 46.60624 6.97058 23638 ft 416 kts 45°
2026-04-20 00:54 46.62455 7.00345 24099 ft 419 kts 45°
2026-04-20 00:55 46.64307 7.03642 24547 ft 420 kts 41°
2026-04-20 00:55 46.66478 7.06369 24977 ft 408 kts 25°
2026-04-20 00:55 46.69008 7.08088 25404 ft 397 kts 10°
2026-04-20 00:55 46.71662 7.09204 25840 ft 397 kts
2026-04-20 00:56 46.74328 7.10299 26268 ft 399 kts
2026-04-20 00:56 46.77017 7.11394 26707 ft 402 kts
2026-04-20 00:56 46.79720 7.12497 27130 ft 404 kts
2026-04-20 00:56 46.82401 7.13820 27550 ft 412 kts 15°
2026-04-20 00:57 46.85010 7.15457 27958 ft 414 kts 16°
2026-04-20 00:57 46.87639 7.17227 28357 ft 422 kts 23°
2026-04-20 00:57 46.89977 7.19960 28732 ft 441 kts 41°
2026-04-20 00:57 46.91778 7.23674 29086 ft 455 kts 52°
2026-04-20 00:58 46.93376 7.27694 29453 ft 458 kts 53°
2026-04-20 00:58 46.94966 7.31754 29844 ft 460 kts 53°
2026-04-20 00:58 46.96552 7.35847 30150 ft 464 kts 53°
2026-04-20 00:58 46.98140 7.39976 30436 ft 466 kts 53°
2026-04-20 00:59 46.99736 7.44136 30691 ft 469 kts 53°
2026-04-20 00:59 47.01341 7.48323 30941 ft 472 kts 53°
2026-04-20 00:59 47.02954 7.52527 31218 ft 474 kts 53°
2026-04-20 00:59 47.04577 7.56755 31468 ft 476 kts 53°
2026-04-20 01:00 47.06325 7.60851 31714 ft 469 kts 44°
2026-04-20 01:00 47.08581 7.64196 32013 ft 454 kts 29°
2026-04-20 01:00 47.11184 7.66530 32339 ft 437 kts 15°
2026-04-20 01:00 47.14028 7.67857 32692 ft 422 kts
2026-04-20 01:01 47.16906 7.68292 33021 ft 415 kts 356°
2026-04-20 01:01 47.19788 7.68594 33352 ft 415 kts 356°
2026-04-20 01:01 47.22666 7.68906 33682 ft 415 kts 356°
2026-04-20 01:01 47.25544 7.69226 34025 ft 415 kts 356°
2026-04-20 01:02 47.28392 7.69553 34628 ft 404 kts 356°
2026-04-20 01:02 47.31170 7.69881 34999 ft 396 kts 356°
2026-04-20 01:02 47.33900 7.70198 35261 ft 393 kts 356°
2026-04-20 01:02 47.36623 7.70505 35508 ft 392 kts 356°
2026-04-20 01:03 47.39345 7.70806 35757 ft 392 kts 356°
2026-04-20 01:03 47.42075 7.71106 36007 ft 393 kts 356°
2026-04-20 01:03 47.44805 7.71406 36133 ft 394 kts 356°
2026-04-20 01:04 47.50366 7.72015 36161 ft 407 kts 357°
2026-04-20 01:04 47.56076 7.72654 36174 ft 413 kts 356°
2026-04-20 01:05 47.61770 7.73312 36164 ft 414 kts 357°
2026-04-20 01:05 47.67510 7.73982 36164 ft 414 kts 357°
2026-04-20 01:06 47.73261 7.74634 36165 ft 414 kts 357°
2026-04-20 01:06 47.79003 7.75286 36178 ft 414 kts 357°
2026-04-20 01:07 47.84746 7.75949 36181 ft 414 kts 357°
2026-04-20 01:07 47.90495 7.76605 36181 ft 414 kts 356°
2026-04-20 01:08 47.96202 7.77262 36214 ft 414 kts 357°
2026-04-20 01:08 48.01957 7.77929 36202 ft 414 kts 357°
2026-04-20 01:09 48.07705 7.78589 36198 ft 414 kts 357°
2026-04-20 01:09 48.13457 7.79253 36190 ft 414 kts 357°
2026-04-20 01:10 48.19209 7.79922 36212 ft 415 kts 357°
2026-04-20 01:10 48.27850 7.80941 36192 ft 415 kts 357°
2026-04-20 01:11 48.33610 7.81609 36190 ft 415 kts 357°
2026-04-20 01:11 48.39369 7.82274 36212 ft 415 kts 357°
2026-04-20 01:12 48.45094 7.82936 36199 ft 415 kts 357°
2026-04-20 01:12 48.50858 7.83607 36193 ft 416 kts 357°
2026-04-20 01:13 48.56634 7.84296 36188 ft 416 kts 357°
2026-04-20 01:13 48.62402 7.84977 36187 ft 415 kts 357°
2026-04-20 01:14 48.67190 7.85542 36183 ft 415 kts 357°
2026-04-20 01:14 48.72952 7.86221 36183 ft 415 kts 357°
2026-04-20 01:15 48.78718 7.86911 36179 ft 415 kts 357°
2026-04-20 01:15 48.84473 7.87602 36200 ft 415 kts 357°
2026-04-20 01:16 48.90226 7.88291 36195 ft 415 kts 357°
2026-04-20 01:16 48.95984 7.88971 36191 ft 415 kts 357°
2026-04-20 01:17 49.01739 7.89661 36189 ft 415 kts 357°
2026-04-20 01:17 49.07491 7.90362 36206 ft 415 kts 358°
2026-04-20 01:18 49.13255 7.91056 36195 ft 415 kts 358°
2026-04-20 01:18 49.18986 7.91748 36186 ft 416 kts 358°
2026-04-20 01:19 49.24758 7.92442 36182 ft 416 kts 358°
2026-04-20 01:19 49.30535 7.93139 36189 ft 417 kts 358°
2026-04-20 01:20 49.36334 7.93850 36169 ft 418 kts 358°
2026-04-20 01:20 49.42096 7.94547 36166 ft 418 kts 358°
2026-04-20 01:21 49.47903 7.95252 36188 ft 419 kts 358°
2026-04-20 01:21 49.53722 7.95967 36177 ft 419 kts 358°
2026-04-20 01:22 49.59543 7.96691 36177 ft 420 kts 358°
2026-04-20 01:22 49.65364 7.97403 36181 ft 420 kts 358°
2026-04-20 01:23 49.71197 7.98114 36201 ft 421 kts 359°
2026-04-20 01:23 49.77044 7.98846 36178 ft 422 kts 359°
2026-04-20 01:24 49.82908 7.99569 36008 ft 424 kts 359°
2026-04-20 01:24 49.85845 7.99935 35766 ft 424 kts 359°
2026-04-20 01:24 49.88790 8.00305 35530 ft 423 kts 359°
2026-04-20 01:25 49.91681 8.00667 35288 ft 423 kts 359°
2026-04-20 01:25 49.94616 8.01032 35069 ft 424 kts 359°
2026-04-20 01:25 49.97565 8.01396 34835 ft 424 kts 359°
2026-04-20 01:25 50.00506 8.01761 34603 ft 424 kts 359°
2026-04-20 01:26 50.03434 8.02129 34373 ft 422 kts 359°
2026-04-20 01:26 50.06356 8.02503 34137 ft 419 kts 358°
2026-04-20 01:26 50.09259 8.02869 33633 ft 417 kts 358°
2026-04-20 01:26 50.12002 8.03216 33126 ft 412 kts 358°
2026-04-20 01:27 50.14844 8.03580 32636 ft 405 kts 358°
2026-04-20 01:27 50.17624 8.03935 32118 ft 397 kts 358°
2026-04-20 01:27 50.20350 8.04279 31611 ft 388 kts 358°
2026-04-20 01:27 50.22998 8.04611 31114 ft 375 kts 358°
2026-04-20 01:28 50.25555 8.04936 30632 ft 363 kts 357°
2026-04-20 01:28 50.28015 8.05251 30048 ft 355 kts 356°
2026-04-20 01:28 50.30455 8.05558 29317 ft 349 kts 357°
2026-04-20 01:28 50.32859 8.05858 28618 ft 345 kts 357°
2026-04-20 01:29 50.35242 8.06146 27927 ft 340 kts 355°
2026-04-20 01:29 50.37509 8.05808 27283 ft 318 kts 335°
2026-04-20 01:29 50.39390 8.04203 26629 ft 305 kts 317°
2026-04-20 01:29 50.41017 8.01961 25811 ft 317 kts 314°
2026-04-20 01:30 50.42668 7.99561 25143 ft 328 kts 314°
2026-04-20 01:30 50.44366 7.97080 24894 ft 336 kts 314°
2026-04-20 01:30 50.46242 7.94877 24644 ft 341 kts 329°
2026-04-20 01:30 50.48511 7.93726 24202 ft 345 kts 341°
2026-04-20 01:31 50.50730 7.92456 23716 ft 336 kts 326°
2026-04-20 01:31 50.52728 7.90587 23129 ft 333 kts 324°
2026-04-20 01:31 50.54661 7.88684 22654 ft 330 kts 323°
2026-04-20 01:31 50.56594 7.86765 22191 ft 327 kts 323°
2026-04-20 01:32 50.58518 7.84872 21728 ft 326 kts 326°
2026-04-20 01:32 50.60598 7.83441 21451 ft 331 kts 341°
2026-04-20 01:32 50.62906 7.83005 21182 ft 337 kts 353°
2026-04-20 01:32 50.65259 7.82894 20917 ft 338 kts 353°
2026-04-20 01:33 50.67605 7.82803 20625 ft 337 kts 354°
2026-04-20 01:33 50.69954 7.82712 20100 ft 338 kts 354°
2026-04-20 01:33 50.72303 7.82612 19593 ft 337 kts 353°
2026-04-20 01:33 50.74581 7.82013 19093 ft 328 kts 340°
2026-04-20 01:34 50.76773 7.80980 18571 ft 335 kts 339°
2026-04-20 01:34 50.79011 7.79873 17882 ft 339 kts 338°
2026-04-20 01:34 50.81095 7.78348 17207 ft 331 kts 322°
2026-04-20 01:34 50.82738 7.75880 16631 ft 322 kts 305°
2026-04-20 01:35 50.83929 7.72956 16284 ft 311 kts 301°
2026-04-20 01:35 50.85072 7.70094 15896 ft 304 kts 301°
2026-04-20 01:35 50.86203 7.67299 15506 ft 300 kts 301°
2026-04-20 01:35 50.87330 7.64527 15118 ft 298 kts 302°
2026-04-20 01:36 50.88453 7.61770 14719 ft 298 kts 302°
2026-04-20 01:36 50.89576 7.59002 14322 ft 297 kts 301°
2026-04-20 01:36 50.90679 7.56265 14111 ft 290 kts 301°
2026-04-20 01:36 50.91757 7.53581 13772 ft 288 kts 301°
2026-04-20 01:37 50.92832 7.50902 13345 ft 286 kts 301°
2026-04-20 01:37 50.93888 7.48264 12768 ft 281 kts 301°
2026-04-20 01:37 50.94927 7.45674 12256 ft 284 kts 303°
2026-04-20 01:37 50.96130 7.43176 11823 ft 286 kts 308°
2026-04-20 01:38 50.97399 7.40743 11440 ft 285 kts 308°
2026-04-20 01:38 50.98670 7.38325 11059 ft 284 kts 308°
2026-04-20 01:38 50.99932 7.35925 10684 ft 283 kts 308°
2026-04-20 01:38 51.01184 7.33543 10321 ft 277 kts 308°
2026-04-20 01:39 51.02425 7.31243 10077 ft 271 kts 311°
2026-04-20 01:39 51.03735 7.29111 9808 ft 269 kts 313°
2026-04-20 01:39 51.05052 7.27012 9529 ft 266 kts 313°
2026-04-20 01:39 51.06340 7.24953 9255 ft 260 kts 314°
2026-04-20 01:40 51.07580 7.22961 8964 ft 252 kts 314°
2026-04-20 01:40 51.08725 7.21114 8588 ft 247 kts 314°
2026-04-20 01:40 51.09932 7.19153 8192 ft 243 kts 314°
2026-04-20 01:40 51.11102 7.17236 7793 ft 240 kts 314°
2026-04-20 01:41 51.12254 7.15331 7429 ft 238 kts 314°
2026-04-20 01:41 51.13394 7.13430 7049 ft 237 kts 313°
2026-04-20 01:41 51.14521 7.11532 6659 ft 236 kts 314°
2026-04-20 01:41 51.15642 7.09609 6264 ft 236 kts 313°
2026-04-20 01:42 51.16754 7.07684 5868 ft 236 kts 313°
2026-04-20 01:42 51.17856 7.05762 5476 ft 235 kts 311°
2026-04-20 01:42 51.18588 7.03469 5159 ft 234 kts 282°
2026-04-20 01:42 51.18432 7.00927 4892 ft 234 kts 249°
2026-04-20 01:43 51.17476 6.98840 4629 ft 235 kts 227°
2026-04-20 01:43 51.16269 6.97076 4363 ft 235 kts 224°
2026-04-20 01:43 51.14949 6.95533 4235 ft 235 kts 214°
2026-04-20 01:43 51.13555 6.94153 4149 ft 236 kts 213°
2026-04-20 01:44 51.12157 6.92800 4043 ft 234 kts 213°
2026-04-20 01:44 51.10769 6.91466 4008 ft 232 kts 213°
2026-04-20 01:44 51.09401 6.90153 4013 ft 232 kts 213°
2026-04-20 01:44 51.08022 6.88842 4014 ft 226 kts 210°
2026-04-20 01:45 51.06548 6.88246 4018 ft 221 kts 181°
2026-04-20 01:45 51.05037 6.88635 4009 ft 222 kts 158°
2026-04-20 01:45 51.03777 6.90002 4019 ft 217 kts 134°
2026-04-20 01:45 51.02743 6.91615 4042 ft 199 kts 136°
2026-04-20 01:46 51.01736 6.93081 4029 ft 197 kts 137°
2026-04-20 01:46 51.00695 6.94536 3747 ft 201 kts 138°
2026-04-20 01:46 50.99662 6.96002 3446 ft 196 kts 137°
2026-04-20 01:46 50.98667 6.97443 3169 ft 187 kts 136°
2026-04-20 01:47 50.97747 6.98784 2912 ft 176 kts 136°
2026-04-20 01:47 50.96856 7.00084 2677 ft 169 kts 135°
2026-04-20 01:47 50.96024 7.01295 2449 ft 160 kts 135°
2026-04-20 01:47 50.95239 7.02440 2250 ft 149 kts 135°
2026-04-20 01:48 50.94489 7.03533 2047 ft 144 kts 134°
2026-04-20 01:48 50.93782 7.04563 1848 ft 142 kts 134°
2026-04-20 01:48 50.93053 7.05624 1646 ft 141 kts 135°
2026-04-20 01:48 50.92329 7.06678 1449 ft 141 kts 135°
2026-04-20 01:49 50.91612 7.07722 1243 ft 139 kts 136°
2026-04-20 01:49 50.90903 7.08753 1045 ft 137 kts 136°
2026-04-20 01:49 50.90202 7.09772 853 ft 136 kts 137°
2026-04-20 01:49 50.89517 7.10768 676 ft 134 kts 137°
2026-04-20 01:50 50.88835 7.11766 475 ft 133 kts 137°
2026-04-20 01:50 50.88154 7.12752 309 ft 133 kts 137°
2026-04-20 01:50 50.87496 7.13712 241 ft 117 kts 137°
2026-04-20 01:50 50.87017 7.14406 255 ft 70 kts 137°
2026-04-20 01:51 50.86698 7.14864 271 ft 55 kts 137°
2026-04-20 01:51 50.86477 7.15178 281 ft 28 kts 145°
2026-04-20 01:51 50.86311 7.15314 286 ft 19 kts 177°
2026-04-20 01:51 50.86195 7.15345 291 ft 15 kts 167°
2026-04-20 01:52 50.86101 7.15350 290 ft 13 kts 201°
2026-04-20 01:52 50.86046 7.15251 291 ft 14 kts 249°
2026-04-20 01:52 50.86070 7.15102 292 ft 16 kts 311°
2026-04-20 01:52 50.86160 7.14969 285 ft 20 kts 316°
2026-04-20 01:53 50.86275 7.14801 279 ft 25 kts 317°
2026-04-20 01:53 50.86415 7.14598 271 ft 28 kts 317°
2026-04-20 01:53 50.86531 7.14431 264 ft 24 kts 318°
2026-04-20 01:53 50.86664 7.14236 260 ft 28 kts 317°
2026-04-20 01:54 50.86809 7.14061 255 ft 21 kts 339°
2026-04-20 01:54 50.86931 7.13912 249 ft 22 kts 316°
2026-04-20 01:54 50.87051 7.13739 242 ft 25 kts 319°
2026-04-20 01:54 50.87183 7.13548 237 ft 21 kts 317°
2026-04-20 01:55 50.87262 7.13433 234 ft 15 kts 317°
2026-04-20 01:55 50.87350 7.13307 232 ft 18 kts 314°
2026-04-20 01:55 50.87446 7.13166 232 ft 20 kts 318°
2026-04-20 01:55 50.87552 7.13012 232 ft 21 kts 316°
2026-04-20 01:56 50.87662 7.12854 232 ft 20 kts 317°
2026-04-20 01:56 50.87760 7.12711 232 ft 12 kts 317°
2026-04-20 01:56 50.87827 7.12623 232 ft 10 kts 330°
2026-04-20 01:56 50.87900 7.12614 232 ft 8 kts
2026-04-20 01:57 50.87950 7.12568 233 ft 9 kts 317°
2026-04-20 01:57 50.87999 7.12497 232 ft 10 kts 318°
2026-04-20 01:57 50.88057 7.12410 232 ft 12 kts 309°
2026-04-20 01:57 50.88098 7.12313 232 ft 8 kts 283°
2026-04-20 01:58 50.88099 7.12292 232 ft 1 kts 274°
2026-04-20 01:58 50.88100 7.12262 232 ft 4 kts 272°
2026-04-20 01:58 50.88083 7.12219 234 ft 6 kts 218°
2026-04-20 01:58 50.88058 7.12191 232 ft 1 kts 214°